Location: Berg
(48.5667°N, 13.9833°E)
Time: 03:56:26
(UTC+00:00)

FALCON 9 DEB - Pass Details

Date: 09 April 2020
Orbit: 428 x 442 km, 53.0° (Epoch: 06 June)

Event Time Altitude Azimuth Distance (km) Brightness Sun altitude
Rises 19:27:24 0° 244° (WSW) 2,428 7.4 -16.0°
Reaches altitude 10° 19:29:31 10° 245° (WSW) 1,559 6.3 -16.3°
Maximum altitude 19:33:02 86° 333° (NNW) 449 3.1 -16.8°
Enters shadow 19:35:01 24° 63° (ENE) 955 4.6 -17.1°
